Back to catalog

DELTA 1 DEB

AliveSSO
NORAD 42656·DEBRIS·🇺🇸 United States

Launched Jun 12, 1975 from Vandenberg Space Force Base

Loading…

Next Passes (next 24 hours)

TLE

FreshSource: Space-Track

Epoch: Sep 13, 2026, 22:30 UTC

1 42656U 75052MR  26256.93804606  .00000108  00000-0  29472-3 0  9995
2 42656  99.6969  62.9345 0068099  63.2476 297.5597 13.34488720623647

Track DELTA 1 DEB in real time with AllMySat

Download on the App Store